Regional Weather Roundup
Issued by NWS

Home | Current Version | Previous Version | Text Only | Print | Product List | Glossary On
Versions: 1 2 3 4 5 6 7 8 9 10 11 12 13 14 15 16 17 18 19 20 21 22 23 24 25 26 27 28 29 30 31 32 33 34 35 36 37 38 39 40 41 42 43 44 45 46 47 48 49 50
000
ASUS45 KBOI 281710
RWRID
WEATHER ROUNDUP FOR IDAHO
NATIONAL WEATHER SERVICE BOISE ID
1000 AM MST FRI NOV 28 2014

NOTE: "FAIR" INDICATES FEW OR NO CLOUDS BELOW 12000 FEET
WITH NO SIGNIFICANT WEATHER AND/OR OBSTRUCTIONS TO VISIBILITY

IDZ012-014-281800-
SOUTHWEST IDAHO


CITY           SKY/WX    TMP DP  RH WIND       PRES   REMARKS
BOISE          CLOUDY    49  34  56 SE14      29.81F
CALDWELL       NOT AVBL
MOUNTAIN HOME  CLOUDY    45  41  85 E9        29.84F
$$

IDZ016-017-281800-
SOUTHCENTRAL IDAHO


CITY           SKY/WX    TMP DP  RH WIND       PRES   REMARKS
BURLEY         CLOUDY    55  21  26 SW20G25   29.89F
JEROME         CLOUDY    50  30  46 E6        29.90S
TWIN FALLS     CLOUDY    51  27  39 SW8       29.90S
$$

IDZ019>023-281800-
SOUTHEAST IDAHO


CITY           SKY/WX    TMP DP  RH WIND       PRES   REMARKS
IDAHO FALLS    PTSUNNY   43  28  55 SW3       29.90R
POCATELLO      SUNNY     55  22  27 S13       29.91S
REXBURG        PTSUNNY   42  26  53 S12       29.87S
$$

IDZ006-010-011-018-031-032-281800-
CENTRAL IDAHO MOUNTAINS


CITY           SKY/WX    TMP DP  RH WIND       PRES   REMARKS
MCCALL         LGT RAIN  39  31  72 S6        29.83R WCI  35
HAILEY         PTSUNNY   37  30  75 NW6       29.93F WCI  33
STANLEY          N/A     43  22  43 SE5       29.90F
SALMON         CLOUDY    43  34  70 CALM      29.77S
CHALLIS        MOSUNNY   46  27  47 S5        29.85R
$$

IDZ002-004-006-007-026-281800-
NORTHERN IDAHO


CITY           SKY/WX    TMP DP  RH WIND       PRES   REMARKS
LEWISTON       CLOUDY    56  43  61 S10       29.61F
LOWELL           N/A     41  40  96 N6        29.71F
COEUR D`ALENE  CLOUDY    52  43  71 SW23G29   29.52F
MULLAN PASS    LGT RAIN  35  35 100 SW16G29   29.56S VSB 1/2 WCI  25
$$


USA.gov is the U.S. government's official web portal to all federal, state and local government web resources and services.